Weather History for Shreveport, LA

Change the Weather History Date:

Thursday, October 25, 2012

  Actual Average Record
Temperature  
Mean Temperature 73 °F 64 °F  
Max Temperature 84 °F 75 °F 90 °F (1931)
Min Temperature 61 °F 52 °F 33 °F (1980)
Degree Days  
Heating Degree Days 0 4  
Month to date heating degree days 36 53  
Since 1 July heating degree days 38 59  
Cooling Degree Days 8 3  
Month to date cooling degree days 120 113  
Year to date cooling degree days 2916 2438  
Growing Degree Days 24 (Base 50)    
Moisture  
Dew Point 67 °F    
Average Humidity 82    
Maximum Humidity 100    
Minimum Humidity 63    
Precipitation  
Precipitation 0.14 in 0.16 in 2.73 in (1885)
Month to date precipitation 2.32 3.95  
Year to date precipitation 43.37 41.10  
Snow  
Snow 0.00 in - - ()
Month to date snowfall 0.0  
Since 1 July snowfall 0.0  
Since 1 September snowfall 0.0  
Snow Depth 0.00 in    
Sea Level Pressure  
Sea Level Pressure 29.91 in    
Wind  
Wind Speed 7 mph (South)    
Max Wind Speed 20 mph    
Max Gust Speed 24 mph    
Visibility 8 miles    
Events Rain , Thunderstorm    
T = Trace of Precipitation, MM = Missing Value Source: NWS Daily Summary

Daily Weather History Graph

Daily Weather History Graph

Search for Another Location

Airport:

Trip Planner

Search our weather history database for the weather conditions in past years. The results will help you decide how hot, cold, wet, or windy it might be!

Date:

Astronomy

Oct. 25, 2012 Rise Set
Actual Time 7:27 AM CDT 6:30 PM CDT
Civil Twilight 7:02 AM CDT 6:56 PM CDT
Nautical Twilight 6:33 AM CDT 7:24 PM CDT
Astronomical Twilight 6:04 AM CDT 7:53 PM CDT
Moon 4:07 PM CDT (10/25) 3:36 AM CDT (10/25)
Length of Visible Light 11h 53m
Length of Day
11h 03m
Waxing Gibbous, 84% of the Moon is Illuminated
Oct 25
Waxing Gibbous
Oct 29
Full
Nov 6
Last Quarter
Nov 13
New
Nov 20
First Quarter

Hourly Weather History & Observations

Time (CDT) Temp. Heat Index Dew Point Humidity Pressure Visibility Wind Dir Wind Speed Gust Speed Precip Events Conditions
12:56 AM 68.0 °F - 66.0 °F 93% 29.91 in 10.0 mi SSE 6.9 mph - N/A   Overcast
1:56 AM 68.0 °F - 66.0 °F 93% 29.90 in 10.0 mi South 6.9 mph - N/A   Mostly Cloudy
2:56 AM 66.9 °F - 66.0 °F 97% 29.88 in 10.0 mi SSE 6.9 mph - N/A   Scattered Clouds
3:56 AM 66.9 °F - 64.9 °F 93% 29.87 in 9.0 mi SSE 5.8 mph - N/A   Scattered Clouds
4:56 AM 66.0 °F - 64.0 °F 93% 29.88 in 9.0 mi SE 5.8 mph - N/A   Partly Cloudy
5:56 AM 64.9 °F - 64.0 °F 97% 29.90 in 7.0 mi SE 4.6 mph - N/A   Mostly Cloudy
6:56 AM 64.9 °F - 64.9 °F 100% 29.91 in 7.0 mi SSE 4.6 mph - N/A   Mostly Cloudy
7:16 AM 66.2 °F - 66.2 °F 100% 29.92 in 7.0 mi SE 5.8 mph - N/A   Overcast
7:25 AM 66.2 °F - 66.2 °F 100% 29.92 in 6.0 mi SE 5.8 mph - N/A   Overcast
7:48 AM 68.0 °F - 66.2 °F 94% 29.93 in 4.0 mi SSE 8.1 mph - N/A   Overcast
7:56 AM 68.0 °F - 66.2 °F 94% 29.93 in 3.0 mi SSE 6.9 mph - N/A   Overcast
8:17 AM 68.0 °F - 66.2 °F 94% 29.93 in 3.0 mi SSE 6.9 mph - N/A   Overcast
8:56 AM 70.0 °F - 68.0 °F 93% 29.94 in 4.0 mi South 5.8 mph - N/A   Overcast
9:56 AM 72.0 °F - 69.1 °F 91% 29.94 in 7.0 mi South 8.1 mph - N/A   Overcast
10:25 AM 75.2 °F - 69.8 °F 83% 29.95 in 7.0 mi South 6.9 mph - N/A   Mostly Cloudy
10:33 AM 75.2 °F - 69.8 °F 83% 29.95 in 7.0 mi South 10.4 mph - N/A   Mostly Cloudy
10:56 AM 75.0 °F - 69.1 °F 82% 29.95 in 7.0 mi South 8.1 mph - N/A   Mostly Cloudy
11:56 AM 77.0 °F - 69.1 °F 76% 29.95 in 10.0 mi Variable 5.8 mph - N/A   Overcast
12:22 PM 80.6 °F 83.9 °F 69.8 °F 70% 29.95 in 10.0 mi South 8.1 mph - N/A   Mostly Cloudy
12:56 PM 81.0 °F 84.1 °F 69.1 °F 67% 29.92 in 10.0 mi South 10.4 mph - N/A   Mostly Cloudy
1:56 PM 82.0 °F 85.5 °F 69.1 °F 65% 29.90 in 10.0 mi South 8.1 mph - N/A   Mostly Cloudy
2:56 PM 82.9 °F 86.5 °F 69.1 °F 63% 29.88 in 10.0 mi Calm Calm - N/A   Scattered Clouds
3:56 PM 82.9 °F 86.5 °F 69.1 °F 63% 29.87 in 10.0 mi South 9.2 mph - N/A   Scattered Clouds
4:56 PM 82.9 °F 85.8 °F 68.0 °F 60% 29.86 in 10.0 mi South 11.5 mph - N/A   Scattered Clouds
5:56 PM 81.0 °F 84.1 °F 69.1 °F 67% 29.87 in 10.0 mi SSW 4.6 mph - N/A   Scattered Clouds
6:56 PM 73.9 °F - 69.1 °F 85% 29.88 in 10.0 mi SSE 3.5 mph - N/A   Scattered Clouds
7:56 PM 75.2 °F - 69.8 °F 83% 29.89 in 10.0 mi SE 3.5 mph - N/A   Scattered Clouds
8:56 PM 73.9 °F - 69.1 °F 85% 29.89 in 10.0 mi SE 4.6 mph - N/A   Mostly Cloudy
9:56 PM 73.0 °F - 69.1 °F 87% 29.90 in 10.0 mi South 6.9 mph - N/A   Mostly Cloudy
10:56 PM 73.4 °F - 69.8 °F 88% 29.93 in 10.0 mi NW 10.4 mph - N/A   Mostly Cloudy
11:02 PM 73.4 °F - 69.8 °F 88% 29.94 in 10.0 mi WNW 12.7 mph - N/A   Overcast
11:17 PM 69.8 °F - 66.2 °F 88% 29.94 in 10.0 mi NW 17.3 mph - N/A   Overcast
11:19 PM 69.8 °F - 64.4 °F 83% 29.94 in 10.0 mi NW 16.1 mph - N/A Thunderstorm Thunderstorm
11:30 PM 68.0 °F - 64.4 °F 88% 29.95 in 7.0 mi NNW 16.1 mph - 0.00 in Rain , Thunderstorm Light Thunderstorms and Rain
11:47 PM 64.4 °F - 62.6 °F 94% 29.95 in 7.0 mi NNW 15.0 mph 21.9 mph 0.01 in Rain , Thunderstorm Thunderstorms and Rain
11:56 PM 64.9 °F - 63.0 °F 93% 29.95 in 7.0 mi NNW 11.5 mph - 0.02 in Rain , Thunderstorm Light Thunderstorms and Rain